TimeEST,TemperatureF,Dew PointF,Humidity,Sea Level PressureIn,VisibilityMPH,Wind Direction,Wind SpeedMPH,Gust SpeedMPH,PrecipitationIn,Events,Conditions,WindDirDegrees,DateUTC
12:52 AM,37.0,32.0,82,29.57,10.0,SSW,3.5,-,N/A,,Overcast,210,2014-02-15 05:52:00
1:52 AM,37.9,30.9,76,29.55,10.0,SW,4.6,-,N/A,,Overcast,220,2014-02-15 06:52:00
2:34 AM,37.4,30.2,75,29.55,4.0,Calm,Calm,-,0.01,Snow,Light Snow,0,2014-02-15 07:34:00
2:52 AM,37.0,32.0,82,29.54,3.0,Calm,Calm,-,0.01,Snow,Light Snow,0,2014-02-15 07:52:00
3:03 AM,37.4,32.0,81,29.54,2.5,WSW,3.5,-,0.00,Snow,Light Snow,240,2014-02-15 08:03:00
3:12 AM,35.6,32.0,87,29.54,2.0,Calm,Calm,-,0.01,Snow,Light Snow,0,2014-02-15 08:12:00
3:18 AM,35.6,32.0,87,29.53,1.8,Calm,Calm,-,0.01,Snow,Light Snow,0,2014-02-15 08:18:00
3:50 AM,35.6,30.2,81,29.53,1.0,SW,3.5,-,0.03,Snow,Light Snow,230,2014-02-15 08:50:00
3:52 AM,36.0,30.9,82,29.53,1.0,SW,3.5,-,0.03,Snow,Light Snow,230,2014-02-15 08:52:00
4:11 AM,35.6,30.2,81,29.52,1.5,WSW,6.9,-,0.02,Snow,Light Snow,240,2014-02-15 09:11:00
4:22 AM,35.6,30.2,81,29.52,2.5,WSW,8.1,-,0.02,Snow,Light Snow,240,2014-02-15 09:22:00
4:31 AM,35.6,30.2,81,29.53,3.0,West,6.9,-,0.02,Snow,Light Snow,260,2014-02-15 09:31:00
4:35 AM,35.6,30.2,81,29.53,2.5,West,8.1,-,0.02,Snow,Light Snow,270,2014-02-15 09:35:00
4:44 AM,35.6,30.2,81,29.54,1.5,WNW,12.7,18.4,0.02,Snow,Light Snow,290,2014-02-15 09:44:00
4:52 AM,36.0,30.0,79,29.55,3.0,WNW,13.8,21.9,0.03,Snow,Light Snow,300,2014-02-15 09:52:00
5:04 AM,35.6,30.2,81,29.55,2.5,WNW,12.7,18.4,0.00,Snow,Light Snow,300,2014-02-15 10:04:00
5:34 AM,35.6,30.2,81,29.56,1.5,WNW,9.2,-,0.00,Snow,Light Snow,300,2014-02-15 10:34:00
5:52 AM,35.1,28.9,78,29.58,2.0,WNW,10.4,-,0.00,Snow,Light Snow,300,2014-02-15 10:52:00
6:07 AM,33.8,28.4,81,29.59,1.2,NW,8.1,20.7,0.00,Snow,Light Snow,310,2014-02-15 11:07:00
6:37 AM,30.2,24.8,80,29.62,2.0,NW,12.7,29.9,0.00,Snow,Light Snow,310,2014-02-15 11:37:00
6:52 AM,30.9,25.0,79,29.65,2.0,WNW,12.7,-,0.00,Snow,Light Snow,300,2014-02-15 11:52:00
7:10 AM,30.2,24.8,80,29.64,1.8,WNW,13.8,24.2,0.00,Snow,Light Snow,300,2014-02-15 12:10:00
7:40 AM,28.4,23.0,80,29.68,2.5,WNW,12.7,26.5,0.01,Snow,Light Snow,300,2014-02-15 12:40:00
7:50 AM,28.4,21.2,74,29.69,4.0,NW,21.9,29.9,0.01,Snow,Light Snow,310,2014-02-15 12:50:00
7:52 AM,28.0,21.9,78,29.71,5.0,NW,17.3,29.9,0.01,,Overcast,310,2014-02-15 12:52:00
8:36 AM,26.6,19.4,74,29.73,4.0,WNW,18.4,24.2,0.00,Snow,Light Snow,300,2014-02-15 13:36:00
8:52 AM,26.1,19.0,75,29.77,3.0,NW,15.0,24.2,0.00,Snow,Light Snow,310,2014-02-15 13:52:00
8:57 AM,24.8,19.4,80,29.74,2.0,NW,13.8,24.2,0.00,Snow,Light Snow,310,2014-02-15 13:57:00
9:08 AM,24.8,19.4,80,29.74,1.0,WNW,15.0,20.7,0.00,Snow,Light Snow,300,2014-02-15 14:08:00
9:16 AM,24.8,17.6,74,29.75,0.5,WNW,13.8,25.3,0.00,Snow,Snow,290,2014-02-15 14:16:00
9:44 AM,21.2,15.8,80,29.78,1.0,NW,21.9,36.8,0.00,Snow,Light Snow,310,2014-02-15 14:44:00
9:48 AM,21.2,15.8,80,29.78,1.0,NW,19.6,36.8,0.00,Snow,Light Snow,310,2014-02-15 14:48:00
9:52 AM,21.9,14.0,72,29.83,1.5,NW,21.9,31.1,0.00,Snow,Light Snow,310,2014-02-15 14:52:00
9:56 AM,21.2,14.0,74,29.79,2.0,WNW,15.0,31.1,0.00,Snow,Light Snow,300,2014-02-15 14:56:00
10:03 AM,21.2,14.0,74,29.79,3.0,WNW,16.1,29.9,0.00,Snow,Light Snow,300,2014-02-15 15:03:00
10:12 AM,21.2,12.2,68,29.79,2.0,WNW,18.4,34.5,0.00,Snow,Light Snow,300,2014-02-15 15:12:00
10:25 AM,21.2,12.2,68,29.80,3.0,WNW,16.1,24.2,0.00,Snow,Light Snow,300,2014-02-15 15:25:00
10:33 AM,21.2,14.0,74,29.80,2.0,NW,15.0,26.5,0.00,Snow,Light Snow,310,2014-02-15 15:33:00
10:40 AM,21.2,14.0,74,29.80,1.5,WNW,11.5,26.5,0.00,Snow,Light Snow,300,2014-02-15 15:40:00
10:52 AM,21.9,12.9,68,29.86,1.5,NW,16.1,27.6,0.00,Snow,Light Snow,310,2014-02-15 15:52:00
11:05 AM,21.2,14.0,74,29.82,0.8,WNW,12.7,24.2,0.00,Snow,Light Snow,300,2014-02-15 16:05:00
11:11 AM,21.2,14.0,74,29.82,0.8,NW,13.8,23.0,0.00,Snow,Light Snow,310,2014-02-15 16:11:00
11:39 AM,21.2,14.0,74,29.83,1.0,WNW,16.1,28.8,0.00,Snow,Light Snow,290,2014-02-15 16:39:00
11:43 AM,21.2,12.2,68,29.84,1.2,NW,15.0,28.8,0.00,Snow,Light Snow,310,2014-02-15 16:43:00
11:50 AM,21.2,12.2,68,29.84,1.2,WNW,11.5,25.3,0.00,Snow,Light Snow,300,2014-02-15 16:50:00
11:52 AM,21.9,12.9,68,29.89,1.2,NW,10.4,20.7,0.00,Snow,Light Snow,310,2014-02-15 16:52:00
12:31 PM,21.2,10.4,63,29.84,2.5,WNW,18.4,27.6,0.00,Snow,Light Snow,300,2014-02-15 17:31:00
12:40 PM,21.2,10.4,63,29.84,3.0,NW,16.1,24.2,0.00,Snow,Light Snow,310,2014-02-15 17:40:00
12:52 PM,21.0,12.0,68,29.90,3.0,NW,16.1,21.9,0.00,Snow,Light Snow,310,2014-02-15 17:52:00
1:02 PM,21.2,12.2,68,29.85,2.0,WNW,10.4,23.0,0.00,Snow,Light Snow,300,2014-02-15 18:02:00
1:18 PM,21.2,10.4,63,29.85,4.0,WNW,13.8,24.2,0.00,Snow,Light Snow,290,2014-02-15 18:18:00
1:52 PM,21.9,12.0,66,29.91,2.5,West,15.0,23.0,0.00,Snow,Light Snow,280,2014-02-15 18:52:00
2:09 PM,21.2,12.2,68,29.87,3.0,WNW,13.8,25.3,0.00,Snow,Light Snow,290,2014-02-15 19:09:00
2:18 PM,21.2,12.2,68,29.88,1.8,WNW,13.8,24.2,0.00,Snow,Light Snow,300,2014-02-15 19:18:00
2:38 PM,21.2,14.0,74,29.89,1.0,WNW,11.5,18.4,0.00,Snow,Light Snow,300,2014-02-15 19:38:00
2:41 PM,23.0,14.0,68,29.89,1.2,WNW,11.5,18.4,0.00,Snow,Light Snow,290,2014-02-15 19:41:00
2:48 PM,23.0,14.0,68,29.89,1.8,WNW,11.5,21.9,0.00,Snow,Light Snow,290,2014-02-15 19:48:00
2:52 PM,23.0,14.0,68,29.95,1.5,WNW,12.7,26.5,0.00,Snow,Light Snow,290,2014-02-15 19:52:00
3:06 PM,23.0,12.2,63,29.89,3.0,WNW,15.0,24.2,0.00,Snow,Light Snow,300,2014-02-15 20:06:00
3:52 PM,23.0,12.9,65,29.95,8.0,West,12.7,19.6,0.00,Snow,Light Snow,280,2014-02-15 20:52:00
4:52 PM,23.0,12.0,63,29.99,10.0,WNW,15.0,21.9,0.00,,Overcast,300,2014-02-15 21:52:00
5:52 PM,21.9,12.0,66,30.01,10.0,WNW,10.4,17.3,0.00,,Overcast,300,2014-02-15 22:52:00
6:52 PM,21.9,12.0,66,30.04,10.0,WNW,5.8,-,0.00,,Overcast,300,2014-02-15 23:52:00
7:52 PM,21.9,12.0,66,30.06,10.0,NW,8.1,17.3,N/A,,Overcast,310,2014-02-16 00:52:00
8:24 PM,21.2,12.2,68,29.97,10.0,West,8.1,-,N/A,,Overcast,280,2014-02-16 01:24:00
8:52 PM,21.0,12.9,71,30.05,10.0,WNW,12.7,-,N/A,,Overcast,290,2014-02-16 01:52:00
9:52 PM,19.9,10.9,68,30.07,10.0,WNW,13.8,20.7,N/A,,Overcast,290,2014-02-16 02:52:00
10:37 PM,19.4,10.4,68,29.97,10.0,WNW,8.1,-,N/A,,Scattered Clouds,290,2014-02-16 03:37:00
10:52 PM,19.0,10.9,71,30.07,10.0,West,5.8,-,N/A,,Clear,280,2014-02-16 03:52:00
11:52 PM,17.1,10.0,74,30.07,10.0,West,4.6,-,N/A,,Clear,270,2014-02-16 04:52:00